Weather History for Vicksburg, MS

Change the Weather History Date:

Sunday, January 15, 2012

  Actual Average Record
Temperature  
Mean Temperature 48 °F 45 °F  
Max Temperature 67 °F 55 °F 78 °F (1950)
Min Temperature 29 °F 35 °F 16 °F (1982)
Degree Days  
Heating Degree Days 17 20  
Month to date heating degree days 240 299  
Since 1 July heating degree days 1199 1236  
Cooling Degree Days 0 0  
Month to date cooling degree days 0 0  
Year to date cooling degree days 0 0  
Moisture  
Dew Point 33 °F    
Average Humidity 59    
Maximum Humidity 89    
Minimum Humidity 28    
Precipitation  
Precipitation 0.00 in 0.14 in 1.44 in (1974)
Month to date precipitation 0.63 2.34  
Year to date precipitation 0.63 2.34  
Sea Level Pressure  
Sea Level Pressure 30.39 in    
Wind  
Wind Speed 7 mph (SSE)    
Max Wind Speed 14 mph    
Max Gust Speed 17 mph    
Visibility 10 miles    
Events      
T = Trace of Precipitation, MM = Missing Value Source: NWS Daily Summary

Daily Weather History Graph

Daily Weather History Graph

Search for Another Location

Airport:

Trip Planner

Search our weather history database for the weather conditions in past years. The results will help you decide how hot, cold, wet, or windy it might be!

Date:

Astronomy

Jan. 15, 2012 Rise Set
Actual Time 7:05 AM CST 5:21 PM CST
Civil Twilight 6:39 AM CST 5:47 PM CST
Nautical Twilight 6:09 AM CST 6:18 PM CST
Astronomical Twilight 5:39 AM CST 6:47 PM CST
Moon No Moon Rise 10:51 AM CST (1/15)
Length of Visible Light 11h 08m
Length of Day
10h 15m
Waning Gibbous, 57% of the Moon is Illuminated
Jan 15
Waning Gibbous
Jan 16
Last Quarter
Jan 23
New
Jan 30
First Quarter
Feb 7
Full

Hourly Weather History & Observations

Time (CST) Temp. Windchill Dew Point Humidity Pressure Visibility Wind Dir Wind Speed Gust Speed Precip Events Conditions
12:53 AM 37.0 °F 34.5 °F 28.9 °F 73% 30.37 in 10.0 mi South 3.5 mph - N/A   Clear
1:53 AM 35.1 °F 27.4 °F 30.0 °F 82% 30.40 in 10.0 mi NNE 10.4 mph 17.3 mph N/A   Clear
2:53 AM 36.0 °F 33.3 °F 30.0 °F 79% 30.40 in 10.0 mi SE 3.5 mph - N/A   Clear
3:53 AM 34.0 °F 28.8 °F 30.0 °F 85% 30.39 in 10.0 mi South 5.8 mph - N/A   Clear
4:53 AM 34.0 °F 28.8 °F 30.0 °F 85% 30.40 in 10.0 mi South 5.8 mph - N/A   Clear
5:53 AM 33.1 °F - 28.9 °F 85% 30.41 in 10.0 mi Calm Calm - N/A   Clear
6:53 AM 33.1 °F 30.0 °F 30.0 °F 89% 30.43 in 10.0 mi SE 3.5 mph - N/A   Clear
7:53 AM 34.0 °F 31.0 °F 30.9 °F 89% 30.45 in 10.0 mi ESE 3.5 mph - N/A   Clear
8:53 AM 45.0 °F 42.6 °F 37.0 °F 74% 30.47 in 10.0 mi South 4.6 mph - N/A   Clear
9:53 AM 50.0 °F - 37.0 °F 61% 30.48 in 10.0 mi SE 5.8 mph - N/A   Clear
10:53 AM 55.0 °F - 37.0 °F 51% 30.47 in 10.0 mi SE 6.9 mph - N/A   Clear
12:53 PM 61.0 °F - 34.0 °F 36% 30.41 in 10.0 mi SSE 6.9 mph - N/A   Clear
1:53 PM 64.9 °F - 32.0 °F 29% 30.37 in 10.0 mi South 8.1 mph - N/A   Clear
2:53 PM 66.0 °F - 32.0 °F 28% 30.35 in 10.0 mi South 5.8 mph - N/A   Clear
3:53 PM 66.0 °F - 32.0 °F 28% 30.34 in 10.0 mi South 8.1 mph - N/A   Clear
4:53 PM 61.0 °F - 36.0 °F 39% 30.34 in 10.0 mi SSE 5.8 mph - N/A   Clear
5:53 PM 54.0 °F - 35.1 °F 49% 30.33 in 10.0 mi SSE 6.9 mph - N/A   Clear
6:53 PM 57.0 °F - 34.0 °F 42% 30.34 in 10.0 mi South 9.2 mph - N/A   Clear
7:53 PM 57.0 °F - 33.1 °F 40% 30.34 in 10.0 mi SSE 10.4 mph - N/A   Clear
8:53 PM 55.9 °F - 35.1 °F 45% 30.35 in 10.0 mi South 9.2 mph - N/A   Clear
9:53 PM 55.0 °F - 36.0 °F 49% 30.35 in 10.0 mi South 9.2 mph - N/A   Clear
10:53 PM 55.0 °F - 37.0 °F 51% 30.35 in 10.0 mi South 10.4 mph - N/A   Partly Cloudy
11:53 PM 54.0 °F - 37.0 °F 53% 30.34 in 10.0 mi SSE 11.5 mph - N/A   Overcast